This demonstration page uses our WeatherBlox Daily Observations layout. Learn more.

Hourly Observations for May 17, 2016

Temp ( °F °C ) Dew Point ( °F °C ) Humidity (%) Winds ( mph kmh ) Pressure ( in mb ) Visibility ( mi km ) Precip ( " mm )
12:15 am 00:15 Cloudy 48 8.7 45 7.3 91 91 NE 9 15 30.15 1021 10 16.0934 0 0
12:35 am 00:35 Cloudy 47 8.6 45 7.4 92 92 NNE 8 13 30.15 1021 10 16.0934 0 0
12:55 am 00:55 Cloudy 47 8.5 45 7.3 92 92 NNE 10 17 30.15 1021 10 16.0934 0 0
1:15 am 01:15 Cloudy 47 8.5 46 7.5 94 94 NNE 10 17 30.15 1021 10 16.0934 0 0
1:35 am 01:35 Cloudy 47 8.5 45 7.3 92 92 NNE 9 15 30.15 1021 10 16.0934 0 0
1:55 am 01:55 Cloudy 47 8.5 45 7.3 92 92 NNE 9 15 30.15 1021 10 16.0934 0 0
2:15 am 02:15 Mostly Cloudy 47 8.5 45 7.2 92 92 NNE 9 15 30.15 1021 10 16.0934 0 0
2:35 am 02:35 Cloudy 47 8.4 45 7.1 92 92 NNE 8 13 30.18 1022 10 16.0934 0 0
2:55 am 02:55 Cloudy 47 8.3 45 7.1 92 92 NNE 8 13 30.18 1022 10 16.0934 0 0
3:15 am 03:15 Cloudy 47 8.3 45 7.2 93 93 NNE 8 13 30.18 1022 10 16.0934 0 0
3:35 am 03:35 Cloudy 47 8.1 45 7 93 93 NNE 8 13 30.18 1022 10 16.0934 0 0
3:55 am 03:55 Cloudy 46 8 44 6.8 92 92 NNE 9 15 30.18 1022 10 16.0934 0 0
4:15 am 04:15 Mostly Cloudy 45 7.4 43 6.3 93 93 NNE 9 15 30.18 1022 10 16.0934 0 0
4:35 am 04:35 Clear 44 6.9 43 6 94 94 NNE 8 13 30.21 1023 7 11.26538 0 0
4:55 am 04:55 Clear 44 6.5 42 5.7 95 95 NNE 8 13 30.24 1024 7 11.26538 0 0
5:15 am 05:15 Clear with Mist and Fog 44 6.5 42 5.6 94 94 N 7 11 30.24 1024 5 8.0467 0 0
5:35 am 05:35 Clear 43 6 42 5.3 95 95 N 7 11 30.24 1024 7 11.26538 0 0
5:55 am 05:55 Clear with Mist and Fog 42 5.8 41 5.1 95 95 N 5 7 30.24 1024 5 8.0467 0 0
6:15 am 06:15 Clear with Mist and Fog 42 5.5 41 4.8 95 95 N 5 7 30.27 1025 5 8.0467 0 0
6:35 am 06:35 Sunny with Mist and Fog 42 5.5 40 4.7 95 95 N 5 7 30.27 1025 5 8.0467 0 0
6:55 am 06:55 Sunny with Mist and Fog 42 5.3 40 4.6 95 95 N 5 7 30.27 1025 5 8.0467 0 0
7:15 am 07:15 Sunny 42 5.5 41 4.8 95 95 N 7 11 30.27 1025 7 11.26538 0 0
7:35 am 07:35 Sunny 42 5.7 41 5 95 95 N 7 11 30.27 1025 10 16.0934 0 0
7:55 am 07:55 Sunny 43 6 41 5.1 94 94 N 6 9 30.3 1026 10 16.0934 0 0
8:15 am 08:15 Sunny 44 6.6 42 5.6 93 93 N 7 11 30.3 1026 10 16.0934 0 0
8:35 am 08:35 Sunny 45 7 42 5.6 91 91 N 7 11 30.3 1026 10 16.0934 0 0
8:55 am 08:55 Sunny 46 7.7 43 6.1 90 90 N 7 11 30.3 1026 10 16.0934 0 0
9:15 am 09:15 Sunny 46 8 43 6 87 87 N 7 11 30.3 1026 10 16.0934 0 0
9:35 am 09:35 Sunny 47 8.5 44 6.5 87 87 N 8 13 30.33 1027 10 16.0934 0 0
9:55 am 09:55 Sunny 49 9.3 44 6.8 85 85 N 9 15 30.27 1025 10 16.0934 0 0
10:15 am 10:15 Sunny 51 10.7 46 7.7 82 82 N 8 13 30.27 1025 10 16.0934 0 0
10:35 am 10:35 Sunny 53 11.4 46 7.6 78 78 N 8 13 30.27 1025 10 16.0934 0 0
10:55 am 10:55 Sunny 54 12 46 7.6 75 75 N 8 13 30.27 1025 10 16.0934 0 0
11:15 am 11:15 Sunny 55 13 46 7.8 71 71 N 8 13 30.27 1025 10 16.0934 0 0
11:35 am 11:35 Sunny 55 12.6 46 7.8 73 73 N 7 11 30.27 1025 10 16.0934 0 0
11:55 am 11:55 Sunny 54 12.3 46 7.6 73 73 NNE 3 6 30.27 1025 10 16.0934 0 0
12:15 pm 12:15 Sunny 56 13.1 47 8.1 72 72 NNE 3 6 30.27 1025 10 16.0934 0 0
12:35 pm 12:35 Sunny 59 14.9 46 8 64 64 ENE 6 9 30.27 1025 10 16.0934 0 0
12:55 pm 12:55 Partly Cloudy 60 15.7 46 7.6 59 59 NNE 3 6 30.21 1023 10 16.0934 0 0
1:15 pm 13:15 Partly Cloudy 62 16.6 46 7.5 55 55 NNE 8 13 30.21 1023 10 16.0934 0 0
1:35 pm 13:35 Sunny 61 16.3 45 7.2 55 55 N 8 13 30.21 1023 10 16.0934 0 0
1:55 pm 13:55 Partly Cloudy 62 16.5 44 6.9 53 53 NNE 13 20 30.21 1023 10 16.0934 0 0
2:15 pm 14:15 Sunny 63 17 43 6.2 49 49 NE 14 22 30.21 1023 10 16.0934 0 0
2:35 pm 14:35 Sunny 63 17.3 42 5.8 47 47 NE 7 11 30.21 1023 10 16.0934 0 0
2:55 pm 14:55 Sunny 62 16.7 44 6.8 52 52 NNE 6 9 30.21 1023 10 16.0934 0 0
3:15 pm 15:15 Sunny 63 17.3 43 6.1 48 48 NE 8 13 30.18 1022 10 16.0934 0 0
3:35 pm 15:35 Sunny 64 17.9 42 5.6 45 45 NNE 8 13 30.18 1022 10 16.0934 0 0
3:55 pm 15:55 Partly Cloudy 64 18 42 5.4 44 44 NE 9 15 30.18 1022 10 16.0934 0 0
4:15 pm 16:15 Partly Cloudy 65 18.5 41 5 41 41 NNE 13 20 30.15 1021 10 16.0934 0 0
4:35 pm 16:35 Sunny 64 17.9 41 5.1 43 43 NNE 10 17 30.18 1022 10 16.0934 0 0
4:55 pm 16:55 Sunny 65 18.1 39 3.8 39 39 NNE 7 11 30.15 1021 10 16.0934 0 0
5:15 pm 17:15 Sunny 65 18.2 38 3.5 38 38 NNE 12 19 30.12 1020 10 16.0934 0 0
5:35 pm 17:35 Sunny 65 18.2 40 4.5 41 41 NNE 10 17 30.12 1020 10 16.0934 0 0
5:55 pm 17:55 Sunny 65 18.1 41 5.2 43 43 NE 10 17 30.12 1020 10 16.0934 0 0
6:15 pm 18:15 Sunny 65 18.1 41 5.2 43 43 NE 7 11 30.12 1020 10 16.0934 0 0
6:35 pm 18:35 Sunny 64 17.8 42 5.6 45 45 NNE 12 19 30.12 1020 10 16.0934 0 0
6:55 pm 18:55 Sunny 64 17.5 40 4.3 42 42 NE 10 17 30.15 1021 10 16.0934 0 0
7:15 pm 19:15 Sunny 63 17.2 40 4.7 44 44 NNE 10 17 30.15 1021 10 16.0934 0 0
7:35 pm 19:35 Sunny 62 16.5 41 5 47 47 NE 9 15 30.15 1021 10 16.0934 0 0
7:55 pm 19:55 Sunny 62 16.5 41 4.9 46 46 NE 6 9 30.15 1021 10 16.0934 0 0
8:15 pm 20:15 Sunny 60 15.7 42 5.5 51 51 E 8 13 30.18 1022 10 16.0934 0 0
8:35 pm 20:35 Sunny 59 14.8 41 5.2 53 53 E 6 9 30.18 1022 10 16.0934 0 0
8:55 pm 20:55 Clear 56 13.5 43 6.2 62 62 ENE 7 11 30.21 1023 10 16.0934 0 0
9:15 pm 21:15 Clear 55 13 42 5.7 61 61 E 6 9 30.21 1023 10 16.0934 0 0
9:35 pm 21:35 Clear 54 12 44 6.4 69 69 E 6 9 30.21 1023 10 16.0934 0 0
9:55 pm 21:55 Clear 55 12.5 42 5.5 63 63 ESE 5 7 30.21 1023 10 16.0934 0 0
10:15 pm 22:15 Clear 53 11.9 42 5.6 66 66 E 5 7 30.21 1023 10 16.0934 0 0
10:35 pm 22:35 Clear 53 11.6 41 5.2 65 65 Calm 30.21 1023 10 16.0934 0 0
10:55 pm 22:55 Clear 51 10.6 42 5.7 72 72 Calm 30.27 1025 10 16.0934 0 0
11:15 pm 23:15 Clear 50 10 42 5.6 74 74 Calm 30.27 1025 10 16.0934 0 0
11:35 pm 23:35 Clear 50 10 42 5.5 74 74 Calm 30.24 1024 10 16.0934 0 0
11:55 pm 23:55 Clear 49 9.2 43 5.9 80 80 Calm 30.27 1025 10 16.0934 0 0

Powered by AerisWeather